owner,sensor,date,latitude,longitude,relative_humidity,qcFlag 
COMPS,ioos:station:USF.COMPS:C12:1,2016-10-01T00:05:00Z,27.4980,-83.7220,79.71,1111122 
COMPS,ioos:station:USF.COMPS:C12:1,2016-10-01T00:35:00Z,27.4980,-83.7220,82.83,1111122 
COMPS,ioos:station:USF.COMPS:C12:1,2016-10-01T01:05:00Z,27.4980,-83.7220,82.79,1111122 
COMPS,ioos:station:USF.COMPS:C12:1,2016-10-01T01:35:00Z,27.4980,-83.7220,82.31,1111122 
COMPS,ioos:station:USF.COMPS:C12:1,2016-10-01T02:05:00Z,27.4980,-83.7220,81.5,1111122 
COMPS,ioos:station:USF.COMPS:C12:1,2016-10-01T02:35:00Z,27.4980,-83.7220,79.7,1111122 
COMPS,ioos:station:USF.COMPS:C12:1,2016-10-01T03:05:00Z,27.4980,-83.7220,78.22,1111122 
COMPS,ioos:station:USF.COMPS:C12:1,2016-10-01T03:35:00Z,27.4980,-83.7220,77.06,1111122 
COMPS,ioos:station:USF.COMPS:C12:1,2016-10-01T04:05:00Z,27.4980,-83.7220,76.4,1111122 
COMPS,ioos:station:USF.COMPS:C12:1,2016-10-01T04:35:00Z,27.4980,-83.7220,77.15,1111122 
COMPS,ioos:station:USF.COMPS:C12:1,2016-10-01T05:05:00Z,27.4980,-83.7220,77.37,1111122 
COMPS,ioos:station:USF.COMPS:C12:1,2016-10-01T05:35:00Z,27.4980,-83.7220,76.51,1111122 
COMPS,ioos:station:USF.COMPS:C12:1,2016-10-01T06:05:00Z,27.4980,-83.7220,76.62,1111122 
COMPS,ioos:station:USF.COMPS:C12:1,2016-10-01T06:35:00Z,27.4980,-83.7220,77.08,1111122 
COMPS,ioos:station:USF.COMPS:C12:1,2016-10-01T07:05:00Z,27.4980,-83.7220,76.66,1111122 
COMPS,ioos:station:USF.COMPS:C12:1,2016-10-01T07:35:00Z,27.4980,-83.7220,76.95,1111122 
COMPS,ioos:station:USF.COMPS:C12:1,2016-10-01T08:05:00Z,27.4980,-83.7220,76.54,1111122 
COMPS,ioos:station:USF.COMPS:C12:1,2016-10-01T08:35:00Z,27.4980,-83.7220,76.48,1111122 
COMPS,ioos:station:USF.COMPS:C12:1,2016-10-01T09:05:00Z,27.4980,-83.7220,76.06,1111122 
COMPS,ioos:station:USF.COMPS:C12:1,2016-10-01T09:35:00Z,27.4980,-83.7220,76.33,1111122 
COMPS,ioos:station:USF.COMPS:C12:1,2016-10-01T10:05:00Z,27.4980,-83.7220,76.39,1111122 
COMPS,ioos:station:USF.COMPS:C12:1,2016-10-01T10:35:00Z,27.4980,-83.7220,75.95,1111122 
COMPS,ioos:station:USF.COMPS:C12:1,2016-10-01T11:05:00Z,27.4980,-83.7220,75.6,1111122 
COMPS,ioos:station:USF.COMPS:C12:1,2016-10-01T11:35:00Z,27.4980,-83.7220,76.27,1111122 
COMPS,ioos:station:USF.COMPS:C12:1,2016-10-01T12:05:00Z,27.4980,-83.7220,75.83,1111122 
COMPS,ioos:station:USF.COMPS:C12:1,2016-10-01T12:35:00Z,27.4980,-83.7220,75.44,1111122 
COMPS,ioos:station:USF.COMPS:C12:1,2016-10-01T13:05:00Z,27.4980,-83.7220,75.03,1111122 
COMPS,ioos:station:USF.COMPS:C12:1,2016-10-01T13:35:00Z,27.4980,-83.7220,74.61,1111122 
COMPS,ioos:station:USF.COMPS:C12:1,2016-10-01T14:05:00Z,27.4980,-83.7220,75.67,1111122 
COMPS,ioos:station:USF.COMPS:C12:1,2016-10-01T14:35:00Z,27.4980,-83.7220,78.3,1111122 
COMPS,ioos:station:USF.COMPS:C12:1,2016-10-01T15:05:00Z,27.4980,-83.7220,79.39,1111122 
COMPS,ioos:station:USF.COMPS:C12:1,2016-10-01T15:35:00Z,27.4980,-83.7220,80.1,1111122 
COMPS,ioos:station:USF.COMPS:C12:1,2016-10-01T16:05:00Z,27.4980,-83.7220,79.91,1111122 
COMPS,ioos:station:USF.COMPS:C12:1,2016-10-01T16:35:00Z,27.4980,-83.7220,78.5,1111122 
COMPS,ioos:station:USF.COMPS:C12:1,2016-10-01T17:05:00Z,27.4980,-83.7220,76.53,1111122 
COMPS,ioos:station:USF.COMPS:C12:1,2016-10-01T17:35:00Z,27.4980,-83.7220,76.58,1111122 
COMPS,ioos:station:USF.COMPS:C12:1,2016-10-01T18:05:00Z,27.4980,-83.7220,76.27,1111122 
COMPS,ioos:station:USF.COMPS:C12:1,2016-10-01T18:35:00Z,27.4980,-83.7220,76.73,1111122 
COMPS,ioos:station:USF.COMPS:C12:1,2016-10-01T19:05:00Z,27.4980,-83.7220,76.38,1111122 
COMPS,ioos:station:USF.COMPS:C12:1,2016-10-01T19:35:00Z,27.4980,-83.7220,76.08,1111122 
COMPS,ioos:station:USF.COMPS:C12:1,2016-10-01T20:05:00Z,27.4980,-83.7220,75.93,1111122 
COMPS,ioos:station:USF.COMPS:C12:1,2016-10-01T20:35:00Z,27.4980,-83.7220,75.67,1111122 
COMPS,ioos:station:USF.COMPS:C12:1,2016-10-01T21:05:00Z,27.4980,-83.7220,76.55,1111122 
COMPS,ioos:station:USF.COMPS:C12:1,2016-10-01T21:35:00Z,27.4980,-83.7220,76.19,1111122 
COMPS,ioos:station:USF.COMPS:C12:1,2016-10-01T22:05:00Z,27.4980,-83.7220,75.54,1111122 
COMPS,ioos:station:USF.COMPS:C12:1,2016-10-01T22:35:00Z,27.4980,-83.7220,74.83,1111122 
COMPS,ioos:station:USF.COMPS:C12:1,2016-10-01T23:05:00Z,27.4980,-83.7220,76.81,1111122 
COMPS,ioos:station:USF.COMPS:C12:1,2016-10-01T23:35:00Z,27.4980,-83.7220,77.55,1111122 
COMPS,ioos:station:USF.COMPS:C12:1,2016-10-02T00:05:00Z,27.4980,-83.7220,77.21,1111122 
COMPS,ioos:station:USF.COMPS:C12:1,2016-10-02T00:35:00Z,27.4980,-83.7220,78.18,1111122 
COMPS,ioos:station:USF.COMPS:C12:1,2016-10-02T01:05:00Z,27.4980,-83.7220,78.05,1111122 
COMPS,ioos:station:USF.COMPS:C12:1,2016-10-02T01:35:00Z,27.4980,-83.7220,78.49,1111122 
COMPS,ioos:station:USF.COMPS:C12:1,2016-10-02T02:05:00Z,27.4980,-83.7220,79.09,1111122 
COMPS,ioos:station:USF.COMPS:C12:1,2016-10-02T02:35:00Z,27.4980,-83.7220,78.68,1111122 
COMPS,ioos:station:USF.COMPS:C12:1,2016-10-02T03:05:00Z,27.4980,-83.7220,79.62,1111122 
COMPS,ioos:station:USF.COMPS:C12:1,2016-10-02T03:35:00Z,27.4980,-83.7220,79.56,1111122 
COMPS,ioos:station:USF.COMPS:C12:1,2016-10-02T04:05:00Z,27.4980,-83.7220,79.86,1111122 
COMPS,ioos:station:USF.COMPS:C12:1,2016-10-02T04:35:00Z,27.4980,-83.7220,80.42,1111122 
COMPS,ioos:station:USF.COMPS:C12:1,2016-10-02T05:05:00Z,27.4980,-83.7220,80.91,1111122 
COMPS,ioos:station:USF.COMPS:C12:1,2016-10-02T05:35:00Z,27.4980,-83.7220,81.09,1111122 
COMPS,ioos:station:USF.COMPS:C12:1,2016-10-02T06:05:00Z,27.4980,-83.7220,89.56,1111122 
COMPS,ioos:station:USF.COMPS:C12:1,2016-10-02T06:35:00Z,27.4980,-83.7220,87.28,1111122 
COMPS,ioos:station:USF.COMPS:C12:1,2016-10-02T07:05:00Z,27.4980,-83.7220,85.53,1111122 
COMPS,ioos:station:USF.COMPS:C12:1,2016-10-02T07:35:00Z,27.4980,-83.7220,82.17,1111122 
COMPS,ioos:station:USF.COMPS:C12:1,2016-10-02T08:05:00Z,27.4980,-83.7220,80.88,1111122 
COMPS,ioos:station:USF.COMPS:C12:1,2016-10-02T08:35:00Z,27.4980,-83.7220,79.97,1111122 
COMPS,ioos:station:USF.COMPS:C12:1,2016-10-02T09:05:00Z,27.4980,-83.7220,80.36,1111122 
COMPS,ioos:station:USF.COMPS:C12:1,2016-10-02T09:35:00Z,27.4980,-83.7220,81.13,1111122 
COMPS,ioos:station:USF.COMPS:C12:1,2016-10-02T10:05:00Z,27.4980,-83.7220,83.64,1111122 
COMPS,ioos:station:USF.COMPS:C12:1,2016-10-02T10:35:00Z,27.4980,-83.7220,75.6,1111122 
COMPS,ioos:station:USF.COMPS:C12:1,2016-10-02T11:05:00Z,27.4980,-83.7220,82.54,1111122 
COMPS,ioos:station:USF.COMPS:C12:1,2016-10-02T11:35:00Z,27.4980,-83.7220,82.39,1111122 
COMPS,ioos:station:USF.COMPS:C12:1,2016-10-02T12:05:00Z,27.4980,-83.7220,82.13,1111122 
COMPS,ioos:station:USF.COMPS:C12:1,2016-10-02T12:35:00Z,27.4980,-83.7220,78.34,1111122 
COMPS,ioos:station:USF.COMPS:C12:1,2016-10-02T13:05:00Z,27.4980,-83.7220,77.7,1111122 
COMPS,ioos:station:USF.COMPS:C12:1,2016-10-02T13:35:00Z,27.4980,-83.7220,77.27,1111122 
COMPS,ioos:station:USF.COMPS:C12:1,2016-10-02T14:05:00Z,27.4980,-83.7220,79.01,1111122 
COMPS,ioos:station:USF.COMPS:C12:1,2016-10-02T14:35:00Z,27.4980,-83.7220,78.77,1111122 
COMPS,ioos:station:USF.COMPS:C12:1,2016-10-02T15:05:00Z,27.4980,-83.7220,80.54,1111122 
COMPS,ioos:station:USF.COMPS:C12:1,2016-10-02T15:35:00Z,27.4980,-83.7220,78.36,1111122 
COMPS,ioos:station:USF.COMPS:C12:1,2016-10-02T16:05:00Z,27.4980,-83.7220,80.48,1111122 
COMPS,ioos:station:USF.COMPS:C12:1,2016-10-02T16:35:00Z,27.4980,-83.7220,82.29,1111122 
COMPS,ioos:station:USF.COMPS:C12:1,2016-10-02T17:05:00Z,27.4980,-83.7220,82.58,1111122 
COMPS,ioos:station:USF.COMPS:C12:1,2016-10-02T17:35:00Z,27.4980,-83.7220,85.22,1111122 
COMPS,ioos:station:USF.COMPS:C12:1,2016-10-02T18:05:00Z,27.4980,-83.7220,85.77,1111122 
COMPS,ioos:station:USF.COMPS:C12:1,2016-10-02T18:35:00Z,27.4980,-83.7220,86.5,1111122 
COMPS,ioos:station:USF.COMPS:C12:1,2016-10-02T19:05:00Z,27.4980,-83.7220,85.06,1111122 
COMPS,ioos:station:USF.COMPS:C12:1,2016-10-02T19:35:00Z,27.4980,-83.7220,86.02,1111122 
COMPS,ioos:station:USF.COMPS:C12:1,2016-10-02T20:05:00Z,27.4980,-83.7220,87.18,1111122 
COMPS,ioos:station:USF.COMPS:C12:1,2016-10-02T20:35:00Z,27.4980,-83.7220,86.97,1111122 
COMPS,ioos:station:USF.COMPS:C12:1,2016-10-02T21:05:00Z,27.4980,-83.7220,85.49,1111122 
COMPS,ioos:station:USF.COMPS:C12:1,2016-10-02T21:35:00Z,27.4980,-83.7220,84.13,1111122 
COMPS,ioos:station:USF.COMPS:C12:1,2016-10-02T22:05:00Z,27.4980,-83.7220,82.22,1111122 
COMPS,ioos:station:USF.COMPS:C12:1,2016-10-02T22:35:00Z,27.4980,-83.7220,79.79,1111122 
COMPS,ioos:station:USF.COMPS:C12:1,2016-10-02T23:05:00Z,27.4980,-83.7220,83.43,1111122 
COMPS,ioos:station:USF.COMPS:C12:1,2016-10-02T23:35:00Z,27.4980,-83.7220,83.09,1111122 
COMPS,ioos:station:USF.COMPS:C12:1,2016-10-03T00:05:00Z,27.4980,-83.7220,84.16,1111122 
COMPS,ioos:station:USF.COMPS:C12:1,2016-10-03T00:35:00Z,27.4980,-83.7220,85.33,1111122 
COMPS,ioos:station:USF.COMPS:C12:1,2016-10-03T01:05:00Z,27.4980,-83.7220,84.89,1111122 
COMPS,ioos:station:USF.COMPS:C12:1,2016-10-03T01:35:00Z,27.4980,-83.7220,85.5,1111122 
COMPS,ioos:station:USF.COMPS:C12:1,2016-10-03T02:05:00Z,27.4980,-83.7220,88.37,1111122 
COMPS,ioos:station:USF.COMPS:C12:1,2016-10-03T02:35:00Z,27.4980,-83.7220,91.97,1111122 
COMPS,ioos:station:USF.COMPS:C12:1,2016-10-03T03:05:00Z,27.4980,-83.7220,85.69,1111122 
COMPS,ioos:station:USF.COMPS:C12:1,2016-10-03T03:35:00Z,27.4980,-83.7220,81.02,1111122 
COMPS,ioos:station:USF.COMPS:C12:1,2016-10-03T04:05:00Z,27.4980,-83.7220,81.8,1111122 
COMPS,ioos:station:USF.COMPS:C12:1,2016-10-03T04:35:00Z,27.4980,-83.7220,82.6,1111122 
COMPS,ioos:station:USF.COMPS:C12:1,2016-10-03T05:05:00Z,27.4980,-83.7220,77.37,1111122 
COMPS,ioos:station:USF.COMPS:C12:1,2016-10-03T05:35:00Z,27.4980,-83.7220,76.79,1111122 
COMPS,ioos:station:USF.COMPS:C12:1,2016-10-03T06:05:00Z,27.4980,-83.7220,78.73,1111122 
COMPS,ioos:station:USF.COMPS:C12:1,2016-10-03T06:35:00Z,27.4980,-83.7220,80.19,1111122 
COMPS,ioos:station:USF.COMPS:C12:1,2016-10-03T07:05:00Z,27.4980,-83.7220,82.07,1111122 
COMPS,ioos:station:USF.COMPS:C12:1,2016-10-03T07:35:00Z,27.4980,-83.7220,82.08,1111122 
COMPS,ioos:station:USF.COMPS:C12:1,2016-10-03T08:05:00Z,27.4980,-83.7220,81.4,1111122 
COMPS,ioos:station:USF.COMPS:C12:1,2016-10-03T08:35:00Z,27.4980,-83.7220,78.44,1111122 
COMPS,ioos:station:USF.COMPS:C12:1,2016-10-03T09:05:00Z,27.4980,-83.7220,80.59,1111122 
COMPS,ioos:station:USF.COMPS:C12:1,2016-10-03T09:35:00Z,27.4980,-83.7220,79.46,1111122 
COMPS,ioos:station:USF.COMPS:C12:1,2016-10-03T10:05:00Z,27.4980,-83.7220,77.33,1111122 
COMPS,ioos:station:USF.COMPS:C12:1,2016-10-03T10:35:00Z,27.4980,-83.7220,78.77,1111122 
COMPS,ioos:station:USF.COMPS:C12:1,2016-10-03T11:05:00Z,27.4980,-83.7220,83.16,1111122 
COMPS,ioos:station:USF.COMPS:C12:1,2016-10-03T11:35:00Z,27.4980,-83.7220,87.04,1111122 
COMPS,ioos:station:USF.COMPS:C12:1,2016-10-03T12:05:00Z,27.4980,-83.7220,86.76,1111122 
COMPS,ioos:station:USF.COMPS:C12:1,2016-10-03T12:35:00Z,27.4980,-83.7220,89.13,1111122 
COMPS,ioos:station:USF.COMPS:C12:1,2016-10-03T13:05:00Z,27.4980,-83.7220,90.38,1111122 
COMPS,ioos:station:USF.COMPS:C12:1,2016-10-03T13:35:00Z,27.4980,-83.7220,89.21,1111122 
COMPS,ioos:station:USF.COMPS:C12:1,2016-10-03T14:05:00Z,27.4980,-83.7220,88.13,1111122 
COMPS,ioos:station:USF.COMPS:C12:1,2016-10-03T14:35:00Z,27.4980,-83.7220,87.56,1111122 
COMPS,ioos:station:USF.COMPS:C12:1,2016-10-03T15:05:00Z,27.4980,-83.7220,87.63,1111122 
COMPS,ioos:station:USF.COMPS:C12:1,2016-10-03T15:35:00Z,27.4980,-83.7220,87.67,1111122 
COMPS,ioos:station:USF.COMPS:C12:1,2016-10-03T16:05:00Z,27.4980,-83.7220,85.78,1111122 
COMPS,ioos:station:USF.COMPS:C12:1,2016-10-03T16:35:00Z,27.4980,-83.7220,88.26,1111122 
COMPS,ioos:station:USF.COMPS:C12:1,2016-10-03T17:05:00Z,27.4980,-83.7220,88.44,1111122 
COMPS,ioos:station:USF.COMPS:C12:1,2016-10-03T17:35:00Z,27.4980,-83.7220,85.57,1111122 
COMPS,ioos:station:USF.COMPS:C12:1,2016-10-03T18:05:00Z,27.4980,-83.7220,92.55,1111122 
COMPS,ioos:station:USF.COMPS:C12:1,2016-10-03T18:35:00Z,27.4980,-83.7220,100.0,1111122 
COMPS,ioos:station:USF.COMPS:C12:1,2016-10-03T19:05:00Z,27.4980,-83.7220,100.09,1111122 
COMPS,ioos:station:USF.COMPS:C12:1,2016-10-03T19:35:00Z,27.4980,-83.7220,91.06,1111122 
COMPS,ioos:station:USF.COMPS:C12:1,2016-10-03T20:05:00Z,27.4980,-83.7220,93.92,1111122 
COMPS,ioos:station:USF.COMPS:C12:1,2016-10-03T20:35:00Z,27.4980,-83.7220,90.46,1111122 
COMPS,ioos:station:USF.COMPS:C12:1,2016-10-03T21:05:00Z,27.4980,-83.7220,89.14,1111122 
COMPS,ioos:station:USF.COMPS:C12:1,2016-10-03T21:35:00Z,27.4980,-83.7220,85.55,1111122 
COMPS,ioos:station:USF.COMPS:C12:1,2016-10-03T22:05:00Z,27.4980,-83.7220,87.77,1111122 
COMPS,ioos:station:USF.COMPS:C12:1,2016-10-03T22:35:00Z,27.4980,-83.7220,85.28,1111122 
COMPS,ioos:station:USF.COMPS:C12:1,2016-10-03T23:05:00Z,27.4980,-83.7220,89.79,1111122 
COMPS,ioos:station:USF.COMPS:C12:1,2016-10-03T23:35:00Z,27.4980,-83.7220,84.68,1111122 
COMPS,ioos:station:USF.COMPS:C12:1,2016-10-04T00:05:00Z,27.4980,-83.7220,80.09,1111122 
COMPS,ioos:station:USF.COMPS:C12:1,2016-10-04T00:35:00Z,27.4980,-83.7220,77.59,1111122 
COMPS,ioos:station:USF.COMPS:C12:1,2016-10-04T01:05:00Z,27.4980,-83.7220,77.51,1111122 
COMPS,ioos:station:USF.COMPS:C12:1,2016-10-04T01:35:00Z,27.4980,-83.7220,90.64,1111122 
COMPS,ioos:station:USF.COMPS:C12:1,2016-10-04T02:05:00Z,27.4980,-83.7220,82.89,1111122 
COMPS,ioos:station:USF.COMPS:C12:1,2016-10-04T02:35:00Z,27.4980,-83.7220,88.49,1111122 
COMPS,ioos:station:USF.COMPS:C12:1,2016-10-04T03:05:00Z,27.4980,-83.7220,86.0,1111122 
COMPS,ioos:station:USF.COMPS:C12:1,2016-10-04T03:35:00Z,27.4980,-83.7220,87.97,1111122 
COMPS,ioos:station:USF.COMPS:C12:1,2016-10-04T04:05:00Z,27.4980,-83.7220,85.68,1111122 
COMPS,ioos:station:USF.COMPS:C12:1,2016-10-04T04:35:00Z,27.4980,-83.7220,86.27,1111122 
COMPS,ioos:station:USF.COMPS:C12:1,2016-10-04T05:05:00Z,27.4980,-83.7220,85.98,1111122 
COMPS,ioos:station:USF.COMPS:C12:1,2016-10-04T05:35:00Z,27.4980,-83.7220,87.12,1111122 
COMPS,ioos:station:USF.COMPS:C12:1,2016-10-04T06:05:00Z,27.4980,-83.7220,87.83,1111122 
COMPS,ioos:station:USF.COMPS:C12:1,2016-10-04T06:35:00Z,27.4980,-83.7220,85.78,1111122 
COMPS,ioos:station:USF.COMPS:C12:1,2016-10-04T07:05:00Z,27.4980,-83.7220,84.52,1111122 
COMPS,ioos:station:USF.COMPS:C12:1,2016-10-04T07:35:00Z,27.4980,-83.7220,84.28,1111122 
COMPS,ioos:station:USF.COMPS:C12:1,2016-10-04T08:05:00Z,27.4980,-83.7220,83.13,1111122 
COMPS,ioos:station:USF.COMPS:C12:1,2016-10-04T08:35:00Z,27.4980,-83.7220,81.08,1111122 
COMPS,ioos:station:USF.COMPS:C12:1,2016-10-04T09:05:00Z,27.4980,-83.7220,81.78,1111122 
COMPS,ioos:station:USF.COMPS:C12:1,2016-10-04T09:35:00Z,27.4980,-83.7220,83.62,1111122 
COMPS,ioos:station:USF.COMPS:C12:1,2016-10-04T10:05:00Z,27.4980,-83.7220,83.77,1111122 
COMPS,ioos:station:USF.COMPS:C12:1,2016-10-04T10:35:00Z,27.4980,-83.7220,82.65,1111122 
COMPS,ioos:station:USF.COMPS:C12:1,2016-10-04T11:05:00Z,27.4980,-83.7220,82.42,1111122 
COMPS,ioos:station:USF.COMPS:C12:1,2016-10-04T11:35:00Z,27.4980,-83.7220,83.21,1111122 
COMPS,ioos:station:USF.COMPS:C12:1,2016-10-04T12:05:00Z,27.4980,-83.7220,84.09,1111122 
COMPS,ioos:station:USF.COMPS:C12:1,2016-10-04T12:35:00Z,27.4980,-83.7220,84.55,1111122 
COMPS,ioos:station:USF.COMPS:C12:1,2016-10-04T13:05:00Z,27.4980,-83.7220,83.47,1111122 
COMPS,ioos:station:USF.COMPS:C12:1,2016-10-04T13:35:00Z,27.4980,-83.7220,80.79,1111122 
COMPS,ioos:station:USF.COMPS:C12:1,2016-10-04T14:05:00Z,27.4980,-83.7220,83.99,1111122 
COMPS,ioos:station:USF.COMPS:C12:1,2016-10-04T14:35:00Z,27.4980,-83.7220,85.12,1111122 
COMPS,ioos:station:USF.COMPS:C12:1,2016-10-04T15:05:00Z,27.4980,-83.7220,84.62,1111122 
COMPS,ioos:station:USF.COMPS:C12:1,2016-10-04T15:35:00Z,27.4980,-83.7220,85.82,1111122 
COMPS,ioos:station:USF.COMPS:C12:1,2016-10-04T16:05:00Z,27.4980,-83.7220,85.46,1111122 
COMPS,ioos:station:USF.COMPS:C12:1,2016-10-04T16:35:00Z,27.4980,-83.7220,86.58,1111122 
COMPS,ioos:station:USF.COMPS:C12:1,2016-10-04T17:05:00Z,27.4980,-83.7220,85.35,1111122 
COMPS,ioos:station:USF.COMPS:C12:1,2016-10-04T17:35:00Z,27.4980,-83.7220,85.82,1111122 
COMPS,ioos:station:USF.COMPS:C12:1,2016-10-04T18:05:00Z,27.4980,-83.7220,85.51,1111122 
COMPS,ioos:station:USF.COMPS:C12:1,2016-10-04T18:35:00Z,27.4980,-83.7220,84.21,1111122 
COMPS,ioos:station:USF.COMPS:C12:1,2016-10-04T19:05:00Z,27.4980,-83.7220,84.31,1111122 
COMPS,ioos:station:USF.COMPS:C12:1,2016-10-04T19:35:00Z,27.4980,-83.7220,83.64,1111122 
COMPS,ioos:station:USF.COMPS:C12:1,2016-10-04T20:05:00Z,27.4980,-83.7220,84.05,1111122 
COMPS,ioos:station:USF.COMPS:C12:1,2016-10-04T20:35:00Z,27.4980,-83.7220,84.29,1111122 
COMPS,ioos:station:USF.COMPS:C12:1,2016-10-04T21:05:00Z,27.4980,-83.7220,83.68,1111122 
COMPS,ioos:station:USF.COMPS:C12:1,2016-10-04T21:35:00Z,27.4980,-83.7220,83.13,1111122 
COMPS,ioos:station:USF.COMPS:C12:1,2016-10-04T22:05:00Z,27.4980,-83.7220,83.35,1111122 
COMPS,ioos:station:USF.COMPS:C12:1,2016-10-04T22:35:00Z,27.4980,-83.7220,84.73,1111122 
COMPS,ioos:station:USF.COMPS:C12:1,2016-10-04T23:05:00Z,27.4980,-83.7220,84.94,1111122 
COMPS,ioos:station:USF.COMPS:C12:1,2016-10-04T23:35:00Z,27.4980,-83.7220,83.86,1111122 
COMPS,ioos:station:USF.COMPS:C12:1,2016-10-05T00:05:00Z,27.4980,-83.7220,80.82,1111122 
COMPS,ioos:station:USF.COMPS:C12:1,2016-10-05T00:35:00Z,27.4980,-83.7220,84.02,1111122 
COMPS,ioos:station:USF.COMPS:C12:1,2016-10-05T01:05:00Z,27.4980,-83.7220,86.02,1111122 
COMPS,ioos:station:USF.COMPS:C12:1,2016-10-05T01:35:00Z,27.4980,-83.7220,81.79,1111122 
COMPS,ioos:station:USF.COMPS:C12:1,2016-10-05T02:05:00Z,27.4980,-83.7220,82.86,1111122 
COMPS,ioos:station:USF.COMPS:C12:1,2016-10-05T02:35:00Z,27.4980,-83.7220,84.04,1111122 
COMPS,ioos:station:USF.COMPS:C12:1,2016-10-05T03:05:00Z,27.4980,-83.7220,83.12,1111122 
COMPS,ioos:station:USF.COMPS:C12:1,2016-10-05T03:35:00Z,27.4980,-83.7220,84.06,1111122 
COMPS,ioos:station:USF.COMPS:C12:1,2016-10-05T04:05:00Z,27.4980,-83.7220,81.28,1111122 
COMPS,ioos:station:USF.COMPS:C12:1,2016-10-05T04:35:00Z,27.4980,-83.7220,83.07,1111122 
COMPS,ioos:station:USF.COMPS:C12:1,2016-10-05T05:05:00Z,27.4980,-83.7220,84.22,1111122 
COMPS,ioos:station:USF.COMPS:C12:1,2016-10-05T05:35:00Z,27.4980,-83.7220,86.7,1111122 
COMPS,ioos:station:USF.COMPS:C12:1,2016-10-05T06:05:00Z,27.4980,-83.7220,85.23,1111122 
COMPS,ioos:station:USF.COMPS:C12:1,2016-10-05T06:35:00Z,27.4980,-83.7220,86.07,1111122 
COMPS,ioos:station:USF.COMPS:C12:1,2016-10-05T07:05:00Z,27.4980,-83.7220,86.42,1111122 
COMPS,ioos:station:USF.COMPS:C12:1,2016-10-05T07:35:00Z,27.4980,-83.7220,86.5,1111122 
COMPS,ioos:station:USF.COMPS:C12:1,2016-10-05T08:05:00Z,27.4980,-83.7220,87.46,1111122 
COMPS,ioos:station:USF.COMPS:C12:1,2016-10-05T08:35:00Z,27.4980,-83.7220,87.28,1111122 
COMPS,ioos:station:USF.COMPS:C12:1,2016-10-05T09:05:00Z,27.4980,-83.7220,86.43,1111122 
COMPS,ioos:station:USF.COMPS:C12:1,2016-10-05T09:35:00Z,27.4980,-83.7220,86.86,1111122 
COMPS,ioos:station:USF.COMPS:C12:1,2016-10-05T10:05:00Z,27.4980,-83.7220,88.37,1111122 
COMPS,ioos:station:USF.COMPS:C12:1,2016-10-05T10:35:00Z,27.4980,-83.7220,87.41,1111122 
COMPS,ioos:station:USF.COMPS:C12:1,2016-10-05T11:05:00Z,27.4980,-83.7220,87.85,1111122 
COMPS,ioos:station:USF.COMPS:C12:1,2016-10-05T11:35:00Z,27.4980,-83.7220,88.25,1111122 
COMPS,ioos:station:USF.COMPS:C12:1,2016-10-05T12:05:00Z,27.4980,-83.7220,85.81,1111122 
COMPS,ioos:station:USF.COMPS:C12:1,2016-10-05T12:35:00Z,27.4980,-83.7220,85.5,1111122 
COMPS,ioos:station:USF.COMPS:C12:1,2016-10-05T13:05:00Z,27.4980,-83.7220,84.42,1111122 
COMPS,ioos:station:USF.COMPS:C12:1,2016-10-05T13:35:00Z,27.4980,-83.7220,86.67,1111122 
COMPS,ioos:station:USF.COMPS:C12:1,2016-10-05T14:05:00Z,27.4980,-83.7220,87.38,1111122 
COMPS,ioos:station:USF.COMPS:C12:1,2016-10-05T14:35:00Z,27.4980,-83.7220,88.76,1111122 
COMPS,ioos:station:USF.COMPS:C12:1,2016-10-05T15:05:00Z,27.4980,-83.7220,87.39,1111122 
COMPS,ioos:station:USF.COMPS:C12:1,2016-10-05T15:35:00Z,27.4980,-83.7220,86.3,1111122 
COMPS,ioos:station:USF.COMPS:C12:1,2016-10-05T16:05:00Z,27.4980,-83.7220,87.88,1111122 
COMPS,ioos:station:USF.COMPS:C12:1,2016-10-05T16:35:00Z,27.4980,-83.7220,88.56,1111122 
COMPS,ioos:station:USF.COMPS:C12:1,2016-10-05T17:05:00Z,27.4980,-83.7220,87.52,1111122 
COMPS,ioos:station:USF.COMPS:C12:1,2016-10-05T17:35:00Z,27.4980,-83.7220,86.25,1111122 
COMPS,ioos:station:USF.COMPS:C12:1,2016-10-05T18:05:00Z,27.4980,-83.7220,84.6,1111122 
COMPS,ioos:station:USF.COMPS:C12:1,2016-10-05T18:35:00Z,27.4980,-83.7220,86.66,1111122 
COMPS,ioos:station:USF.COMPS:C12:1,2016-10-05T19:05:00Z,27.4980,-83.7220,85.88,1111122 
COMPS,ioos:station:USF.COMPS:C12:1,2016-10-05T19:35:00Z,27.4980,-83.7220,84.53,1111122 
COMPS,ioos:station:USF.COMPS:C12:1,2016-10-05T20:05:00Z,27.4980,-83.7220,85.84,1111122 
COMPS,ioos:station:USF.COMPS:C12:1,2016-10-05T20:35:00Z,27.4980,-83.7220,84.69,1111122 
COMPS,ioos:station:USF.COMPS:C12:1,2016-10-05T21:05:00Z,27.4980,-83.7220,85.56,1111122 
COMPS,ioos:station:USF.COMPS:C12:1,2016-10-05T21:35:00Z,27.4980,-83.7220,86.69,1111122 
COMPS,ioos:station:USF.COMPS:C12:1,2016-10-05T22:05:00Z,27.4980,-83.7220,86.58,1111122 
COMPS,ioos:station:USF.COMPS:C12:1,2016-10-05T22:35:00Z,27.4980,-83.7220,86.25,1111122 
COMPS,ioos:station:USF.COMPS:C12:1,2016-10-05T23:05:00Z,27.4980,-83.7220,86.74,1111122 
COMPS,ioos:station:USF.COMPS:C12:1,2016-10-05T23:35:00Z,27.4980,-83.7220,86.86,1111122 
COMPS,ioos:station:USF.COMPS:C12:1,2016-10-06T00:05:00Z,27.4980,-83.7220,85.98,1111122 
COMPS,ioos:station:USF.COMPS:C12:1,2016-10-06T00:35:00Z,27.4980,-83.7220,87.09,1111122 
COMPS,ioos:station:USF.COMPS:C12:1,2016-10-06T01:05:00Z,27.4980,-83.7220,88.31,1111122 
COMPS,ioos:station:USF.COMPS:C12:1,2016-10-06T01:35:00Z,27.4980,-83.7220,89.64,1111122 
COMPS,ioos:station:USF.COMPS:C12:1,2016-10-06T02:05:00Z,27.4980,-83.7220,89.95,1111122 
COMPS,ioos:station:USF.COMPS:C12:1,2016-10-06T02:35:00Z,27.4980,-83.7220,90.05,1111122 
COMPS,ioos:station:USF.COMPS:C12:1,2016-10-06T03:05:00Z,27.4980,-83.7220,91.49,1111122 
COMPS,ioos:station:USF.COMPS:C12:1,2016-10-06T03:35:00Z,27.4980,-83.7220,91.8,1111122 
COMPS,ioos:station:USF.COMPS:C12:1,2016-10-06T04:05:00Z,27.4980,-83.7220,90.8,1111122 
COMPS,ioos:station:USF.COMPS:C12:1,2016-10-06T04:35:00Z,27.4980,-83.7220,90.98,1111122 
COMPS,ioos:station:USF.COMPS:C12:1,2016-10-06T05:05:00Z,27.4980,-83.7220,91.21,1111122 
COMPS,ioos:station:USF.COMPS:C12:1,2016-10-06T05:35:00Z,27.4980,-83.7220,91.96,1111122 
COMPS,ioos:station:USF.COMPS:C12:1,2016-10-06T06:05:00Z,27.4980,-83.7220,91.26,1111122 
COMPS,ioos:station:USF.COMPS:C12:1,2016-10-06T06:35:00Z,27.4980,-83.7220,95.84,1111122 
COMPS,ioos:station:USF.COMPS:C12:1,2016-10-06T07:05:00Z,27.4980,-83.7220,91.29,1111122 
COMPS,ioos:station:USF.COMPS:C12:1,2016-10-06T07:35:00Z,27.4980,-83.7220,91.53,1111122 
COMPS,ioos:station:USF.COMPS:C12:1,2016-10-06T08:05:00Z,27.4980,-83.7220,91.07,1111122 
COMPS,ioos:station:USF.COMPS:C12:1,2016-10-06T08:35:00Z,27.4980,-83.7220,92.54,1111122 
COMPS,ioos:station:USF.COMPS:C12:1,2016-10-06T09:05:00Z,27.4980,-83.7220,92.51,1111122 
COMPS,ioos:station:USF.COMPS:C12:1,2016-10-06T09:35:00Z,27.4980,-83.7220,92.12,1111122 
COMPS,ioos:station:USF.COMPS:C12:1,2016-10-06T10:05:00Z,27.4980,-83.7220,91.98,1111122 
COMPS,ioos:station:USF.COMPS:C12:1,2016-10-06T10:35:00Z,27.4980,-83.7220,92.07,1111122 
COMPS,ioos:station:USF.COMPS:C12:1,2016-10-06T11:05:00Z,27.4980,-83.7220,92.04,1111122 
COMPS,ioos:station:USF.COMPS:C12:1,2016-10-06T11:35:00Z,27.4980,-83.7220,91.86,1111122 
COMPS,ioos:station:USF.COMPS:C12:1,2016-10-06T12:05:00Z,27.4980,-83.7220,91.74,1111122 
COMPS,ioos:station:USF.COMPS:C12:1,2016-10-06T12:35:00Z,27.4980,-83.7220,92.12,1111122 
COMPS,ioos:station:USF.COMPS:C12:1,2016-10-06T13:05:00Z,27.4980,-83.7220,92.35,1111122 
COMPS,ioos:station:USF.COMPS:C12:1,2016-10-06T13:35:00Z,27.4980,-83.7220,91.38,1111122 
COMPS,ioos:station:USF.COMPS:C12:1,2016-10-06T14:05:00Z,27.4980,-83.7220,91.13,1111122 
COMPS,ioos:station:USF.COMPS:C12:1,2016-10-06T14:35:00Z,27.4980,-83.7220,91.26,1111122 
COMPS,ioos:station:USF.COMPS:C12:1,2016-10-06T15:05:00Z,27.4980,-83.7220,91.76,1111122 
COMPS,ioos:station:USF.COMPS:C12:1,2016-10-06T15:35:00Z,27.4980,-83.7220,91.8,1111122 